Time,TemperatureF,DewpointF,PressureIn,WindDirection,WindDirectionDegrees,WindSpeedMPH,WindSpeedGustMPH,Humidity,HourlyPrecipIn,Conditions,Clouds,dailyrainin,SolarRadiationWatts/m^2,SoftwareType,DateUTC
2013-09-15 00:02:00,-999.0,-99.9,-100.00,SSW,193,3.0,4.0,-999,-99.99,,,-99.99,0.000000,,2013-09-15 04:02:00,
2013-09-15 00:13:00,49.0,44.0,-100.00,South,185,2.0,5.0,82,0.00,,,0.00,0.000000,,2013-09-15 04:13:00,
2013-09-15 00:43:00,49.0,44.0,-100.00,South,185,2.0,5.0,82,0.00,,,0.00,0.000000,,2013-09-15 04:43:00,
2013-09-15 00:55:00,49.0,44.0,-100.00,South,185,2.0,5.0,82,0.00,,,0.00,0.000000,,2013-09-15 04:55:00,
2013-09-15 01:03:00,49.0,44.0,-100.00,South,185,2.0,5.0,82,0.00,,,0.00,0.000000,,2013-09-15 05:03:00,
2013-09-15 01:42:00,49.0,45.0,-100.00,SSW,193,3.0,5.0,85,0.00,,,0.00,0.000000,,2013-09-15 05:42:00,
2013-09-15 01:52:00,49.0,45.0,-100.00,SSW,193,3.0,5.0,85,0.00,,,0.00,0.000000,,2013-09-15 05:52:00,
2013-09-15 02:02:00,49.0,45.0,-100.00,SSW,193,3.0,5.0,85,0.00,,,0.00,0.000000,,2013-09-15 06:02:00,
2013-09-15 02:12:00,49.0,45.0,-100.00,SSW,193,3.0,5.0,85,0.00,,,0.00,0.000000,,2013-09-15 06:12:00,
2013-09-15 02:42:00,46.0,43.0,-100.00,SSW,197,2.0,5.0,89,0.00,,,0.00,0.000000,,2013-09-15 06:42:00,
2013-09-15 02:52:00,46.0,43.0,-100.00,SSW,197,2.0,5.0,89,0.00,,,0.00,0.000000,,2013-09-15 06:52:00,
2013-09-15 03:02:00,46.0,43.0,-100.00,SSW,197,2.0,5.0,89,0.00,,,0.00,0.000000,,2013-09-15 07:02:00,
2013-09-15 03:11:00,46.0,43.0,-100.00,SSW,197,2.0,5.0,89,0.00,,,0.00,0.000000,,2013-09-15 07:11:00,
2013-09-15 03:42:00,46.0,43.0,-100.00,SSW,207,2.0,6.0,90,0.00,,,0.00,0.000000,,2013-09-15 07:42:00,
2013-09-15 03:53:00,46.0,43.0,-100.00,SSW,207,2.0,6.0,90,0.00,,,0.00,0.000000,,2013-09-15 07:53:00,
2013-09-15 04:02:00,46.0,43.0,-100.00,SSW,207,2.0,6.0,90,0.00,,,0.00,0.000000,,2013-09-15 08:02:00,
2013-09-15 04:11:00,46.0,43.0,-100.00,SSW,207,2.0,6.0,90,0.00,,,0.00,0.000000,,2013-09-15 08:11:00,
2013-09-15 04:43:00,46.0,44.0,-100.00,SSW,203,2.0,5.0,91,0.00,,,0.00,0.000000,,2013-09-15 08:43:00,
2013-09-15 04:52:00,46.0,44.0,-100.00,SSW,203,2.0,5.0,91,0.00,,,0.00,0.000000,,2013-09-15 08:52:00,
2013-09-15 05:02:00,46.0,44.0,-100.00,SSW,203,2.0,5.0,91,0.00,,,0.00,0.000000,,2013-09-15 09:02:00,
2013-09-15 05:12:00,46.0,44.0,-100.00,SSW,203,2.0,5.0,91,0.00,,,0.00,0.000000,,2013-09-15 09:12:00,
2013-09-15 05:13:00,44.0,42.0,-100.00,East,81,1.0,3.0,94,0.00,,,0.00,0.000000,,2013-09-15 09:13:00,
2013-09-15 05:44:00,44.0,42.0,-100.00,East,81,1.0,3.0,94,0.00,,,0.00,0.000000,,2013-09-15 09:44:00,
2013-09-15 05:54:00,44.0,42.0,-100.00,East,81,1.0,3.0,94,0.00,,,0.00,0.000000,,2013-09-15 09:54:00,
2013-09-15 06:03:00,44.0,42.0,-100.00,East,81,1.0,3.0,94,0.00,,,0.00,0.000000,,2013-09-15 10:03:00,
2013-09-15 06:43:00,43.0,42.0,-100.00,ENE,58,1.0,4.0,96,0.00,,,0.00,0.000000,,2013-09-15 10:43:00,
2013-09-15 06:53:00,43.0,42.0,-100.00,ENE,58,1.0,4.0,96,0.00,,,0.00,0.000000,,2013-09-15 10:53:00,
2013-09-15 07:02:00,43.0,42.0,-100.00,ENE,58,1.0,4.0,96,0.00,,,0.00,0.000000,,2013-09-15 11:02:00,
2013-09-15 07:12:00,43.0,42.0,-100.00,ENE,58,1.0,4.0,96,0.00,,,0.00,0.000000,,2013-09-15 11:12:00,
2013-09-15 07:42:00,43.0,42.0,-100.00,NW,310,1.0,2.0,96,0.00,,,0.00,5.000000,,2013-09-15 11:42:00,
2013-09-15 07:52:00,43.0,42.0,-100.00,NW,310,1.0,2.0,96,0.00,,,0.00,5.000000,,2013-09-15 11:52:00,
2013-09-15 08:02:00,43.0,42.0,-100.00,NW,310,1.0,2.0,96,0.00,,,0.00,5.000000,,2013-09-15 12:02:00,
2013-09-15 08:12:00,43.0,42.0,-100.00,NW,310,1.0,2.0,96,0.00,,,0.00,5.000000,,2013-09-15 12:12:00,
2013-09-15 08:42:00,51.0,47.0,-100.00,ESE,118,1.0,4.0,86,0.00,,,0.00,120.000000,,2013-09-15 12:42:00,
2013-09-15 08:52:00,51.0,47.0,-100.00,ESE,118,1.0,4.0,86,0.00,,,0.00,120.000000,,2013-09-15 12:52:00,
2013-09-15 09:02:00,51.0,47.0,-100.00,ESE,118,1.0,4.0,86,0.00,,,0.00,120.000000,,2013-09-15 13:02:00,
2013-09-15 09:11:00,51.0,47.0,-100.00,ESE,118,1.0,4.0,86,0.00,,,0.00,120.000000,,2013-09-15 13:11:00,
2013-09-15 09:42:00,56.0,49.0,-100.00,SSE,163,2.0,4.0,78,0.00,,,0.00,288.000000,,2013-09-15 13:42:00,
2013-09-15 09:53:00,56.0,49.0,-100.00,SSE,163,2.0,4.0,78,0.00,,,0.00,288.000000,,2013-09-15 13:53:00,
2013-09-15 10:02:00,56.0,49.0,-100.00,SSE,163,2.0,4.0,78,0.00,,,0.00,288.000000,,2013-09-15 14:02:00,
2013-09-15 10:12:00,56.0,49.0,-100.00,SSE,163,2.0,4.0,78,0.00,,,0.00,288.000000,,2013-09-15 14:12:00,
2013-09-15 15:42:00,78.0,51.0,-100.00,SSW,202,6.0,10.0,39,0.00,,,0.00,668.000000,,2013-09-15 19:42:00,
2013-09-15 15:52:00,78.0,51.0,-100.00,SSW,202,6.0,10.0,39,0.00,,,0.00,668.000000,,2013-09-15 19:52:00,
2013-09-15 16:02:00,78.0,51.0,-100.00,SSW,202,6.0,10.0,39,0.00,,,0.00,668.000000,,2013-09-15 20:02:00,
2013-09-15 16:11:00,78.0,51.0,-100.00,SSW,202,6.0,10.0,39,0.00,,,0.00,668.000000,,2013-09-15 20:11:00,
2013-09-15 16:42:00,78.0,52.0,-100.00,SSE,160,6.0,12.0,40,0.00,,,0.00,508.000000,,2013-09-15 20:42:00,
2013-09-15 16:53:00,78.0,52.0,-100.00,SSE,160,6.0,12.0,40,0.00,,,0.00,508.000000,,2013-09-15 20:53:00,
2013-09-15 17:02:00,78.0,52.0,-100.00,SSE,160,6.0,12.0,40,0.00,,,0.00,508.000000,,2013-09-15 21:02:00,
2013-09-15 17:11:00,78.0,52.0,-100.00,SSE,160,6.0,12.0,40,0.00,,,0.00,508.000000,,2013-09-15 21:11:00,
2013-09-15 17:13:00,76.0,52.0,-100.00,SSE,156,5.0,12.0,44,0.00,,,-99.99,318.000000,,2013-09-15 21:13:00,
2013-09-15 17:44:00,76.0,52.0,-100.00,SSE,156,5.0,12.0,44,0.00,,,-99.99,318.000000,,2013-09-15 21:44:00,
2013-09-15 17:54:00,76.0,52.0,-100.00,SSE,156,5.0,12.0,44,0.00,,,-99.99,318.000000,,2013-09-15 21:54:00,
2013-09-15 18:04:00,76.0,52.0,-100.00,SSE,156,5.0,12.0,44,0.00,,,-99.99,318.000000,,2013-09-15 22:04:00,
2013-09-15 18:44:00,74.0,53.0,-100.00,SSE,154,5.0,10.0,48,0.00,,,-99.99,163.000000,,2013-09-15 22:44:00,
2013-09-15 18:54:00,74.0,53.0,-100.00,SSE,154,5.0,10.0,48,0.00,,,-99.99,163.000000,,2013-09-15 22:54:00,
2013-09-15 19:02:00,74.0,53.0,-100.00,SSE,154,5.0,10.0,48,0.00,,,-99.99,163.000000,,2013-09-15 23:02:00,
2013-09-15 19:12:00,74.0,53.0,-100.00,SSE,154,5.0,10.0,48,0.00,,,-99.99,163.000000,,2013-09-15 23:12:00,
2013-09-15 19:42:00,71.0,53.0,-100.00,SSE,156,5.0,8.0,53,0.00,,,0.00,45.000000,,2013-09-15 23:42:00,
2013-09-15 19:53:00,71.0,53.0,-100.00,SSE,156,5.0,8.0,53,0.00,,,0.00,45.000000,,2013-09-15 23:53:00,
2013-09-15 20:01:00,71.0,53.0,-100.00,SSE,156,5.0,8.0,53,0.00,,,0.00,45.000000,,2013-09-16 00:01:00,
2013-09-15 20:11:00,71.0,53.0,-100.00,SSE,156,5.0,8.0,53,0.00,,,0.00,45.000000,,2013-09-16 00:11:00,
2013-09-15 20:42:00,68.0,54.0,-100.00,South,169,3.0,8.0,62,0.00,,,0.00,0.000000,,2013-09-16 00:42:00,
2013-09-15 20:52:00,68.0,54.0,-100.00,South,169,3.0,8.0,62,0.00,,,0.00,0.000000,,2013-09-16 00:52:00,
2013-09-15 21:02:00,68.0,54.0,-100.00,South,169,3.0,8.0,62,0.00,,,0.00,0.000000,,2013-09-16 01:02:00,
2013-09-15 21:12:00,68.0,54.0,-100.00,South,169,3.0,8.0,62,0.00,,,0.00,0.000000,,2013-09-16 01:12:00,
2013-09-15 21:42:00,65.0,55.0,-100.00,South,186,2.0,4.0,70,0.00,,,0.00,0.000000,,2013-09-16 01:42:00,
2013-09-15 21:52:00,65.0,55.0,-100.00,South,186,2.0,4.0,70,0.00,,,0.00,0.000000,,2013-09-16 01:52:00,
2013-09-15 22:02:00,65.0,55.0,-100.00,South,186,2.0,4.0,70,0.00,,,0.00,0.000000,,2013-09-16 02:02:00,
2013-09-15 22:12:00,65.0,55.0,-100.00,South,186,2.0,4.0,70,0.00,,,0.00,0.000000,,2013-09-16 02:12:00,
2013-09-15 22:42:00,65.0,56.0,-100.00,West,273,1.0,4.0,72,0.00,,,0.00,0.000000,,2013-09-16 02:42:00,
2013-09-15 22:52:00,65.0,56.0,-100.00,West,273,1.0,4.0,72,0.00,,,0.00,0.000000,,2013-09-16 02:52:00,
2013-09-15 23:02:00,65.0,56.0,-100.00,West,273,1.0,4.0,72,0.00,,,0.00,0.000000,,2013-09-16 03:02:00,
2013-09-15 23:11:00,65.0,56.0,-100.00,West,273,1.0,4.0,72,0.00,,,0.00,0.000000,,2013-09-16 03:11:00,
2013-09-15 23:13:00,64.0,56.0,-100.00,SSW,196,2.0,4.0,76,0.00,,,0.00,0.000000,,2013-09-16 03:13:00,
2013-09-15 23:45:00,64.0,56.0,-100.00,SSW,196,2.0,4.0,76,0.00,,,0.00,0.000000,,2013-09-16 03:45:00,
2013-09-15 23:55:00,64.0,56.0,-100.00,SSW,196,2.0,4.0,76,0.00,,,0.00,0.000000,,2013-09-16 03:55:00,